{"data":{"norad_id":62239,"epoch":"2026-05-25T00:44:14.385120Z","epoch_age_seconds":79142,"freshness":"FRESH","line1":"1 62239U 24232C   26145.03072205  .00000105  00000+0  14385-3 0  9991","line2":"2 62239  89.0101  24.8346 0016580  83.0259 277.2777 13.51009693121276","mean_motion":13.51009693,"eccentricity":0.001658,"inclination_deg":89.0101,"raan_deg":24.8346,"arg_perigee_deg":83.0259,"mean_anomaly_deg":277.2777,"bstar":0.00014385,"rev_number":12127,"period_min":106.58694807751,"perigee_km":1056.1993665235,"apogee_km":1080.8925672417,"semimajor_km":7446.6829668826,"source":"CELESTRAK","updated_at":"2026-05-25T13:38:02.865427Z"}}